Year,Month,Day,Hour,Minute,Value (Times are PST for temperature in C)
2017,06,27,00,00,13.30
2017,06,27,00,01,13.30
2017,06,27,00,02,13.30
2017,06,27,00,03,13.30
2017,06,27,00,04,13.30
2017,06,27,00,05,13.30
2017,06,27,00,06,13.30
2017,06,27,00,07,13.30
2017,06,27,00,08,13.30
2017,06,27,00,09,13.30
2017,06,27,00,10,13.30
2017,06,27,00,11,13.20
2017,06,27,00,12,13.20
2017,06,27,00,13,13.20
2017,06,27,00,14,13.20
2017,06,27,00,15,13.20
2017,06,27,00,16,13.20
2017,06,27,00,17,13.20
2017,06,27,00,18,13.20
2017,06,27,00,19,13.20
2017,06,27,00,20,13.20
2017,06,27,00,21,13.20
2017,06,27,00,22,13.20
2017,06,27,00,23,13.20
2017,06,27,00,24,13.20
2017,06,27,00,25,13.20
2017,06,27,00,26,13.20
2017,06,27,00,27,13.20
2017,06,27,00,28,13.20
2017,06,27,00,29,13.20
2017,06,27,00,30,13.20
2017,06,27,00,31,13.20
2017,06,27,00,32,13.20
2017,06,27,00,33,13.20
2017,06,27,00,34,13.20
2017,06,27,00,35,13.10
2017,06,27,00,36,13.10
2017,06,27,00,37,13.10
2017,06,27,00,38,13.10
2017,06,27,00,39,13.10
2017,06,27,00,40,13.10
2017,06,27,00,41,13.10
2017,06,27,00,42,13.10
2017,06,27,00,43,13.10
2017,06,27,00,44,13.10
2017,06,27,00,45,13.10
2017,06,27,00,46,13.10
2017,06,27,00,47,13.00
2017,06,27,00,48,13.00
2017,06,27,00,49,13.00
2017,06,27,00,50,13.00
2017,06,27,00,51,13.00
2017,06,27,00,52,12.90
2017,06,27,00,53,12.90
2017,06,27,00,54,12.90
2017,06,27,00,55,12.90
2017,06,27,00,56,12.90
2017,06,27,00,57,12.90
2017,06,27,00,58,12.80
2017,06,27,00,59,12.80
2017,06,27,01,00,12.80
2017,06,27,01,01,12.80
2017,06,27,01,02,12.80
2017,06,27,01,03,12.80
2017,06,27,01,04,12.80
2017,06,27,01,05,12.80
2017,06,27,01,06,12.80
2017,06,27,01,07,12.80
2017,06,27,01,08,12.70
2017,06,27,01,09,12.70
2017,06,27,01,10,12.70
2017,06,27,01,11,12.70
2017,06,27,01,12,12.70
2017,06,27,01,13,12.70
2017,06,27,01,14,12.70
2017,06,27,01,15,12.70
2017,06,27,01,16,12.70
2017,06,27,01,17,12.60
2017,06,27,01,18,12.60
2017,06,27,01,19,12.60
2017,06,27,01,20,12.60
2017,06,27,01,21,12.60
2017,06,27,01,22,12.60
2017,06,27,01,23,12.60
2017,06,27,01,24,12.60
2017,06,27,01,25,12.60
2017,06,27,01,26,12.50
2017,06,27,01,27,12.50
2017,06,27,01,28,12.40
2017,06,27,01,29,12.40
2017,06,27,01,30,12.40
2017,06,27,01,31,12.40
2017,06,27,01,32,12.40
2017,06,27,01,33,12.30
2017,06,27,01,34,12.30
2017,06,27,01,35,12.30
2017,06,27,01,36,12.30
2017,06,27,01,37,12.30
2017,06,27,01,38,12.30
2017,06,27,01,39,12.30
2017,06,27,01,40,12.30
2017,06,27,01,41,12.20
2017,06,27,01,42,12.20
2017,06,27,01,43,12.20
2017,06,27,01,44,12.20
2017,06,27,01,45,12.20
2017,06,27,01,46,12.20
2017,06,27,01,47,12.20
2017,06,27,01,48,12.20
2017,06,27,01,49,12.20
2017,06,27,01,50,12.20
2017,06,27,01,51,12.20
2017,06,27,01,52,12.20
2017,06,27,01,53,12.20
2017,06,27,01,54,12.20
2017,06,27,01,55,12.20
2017,06,27,01,56,12.20
2017,06,27,01,57,12.20
2017,06,27,01,58,12.20
2017,06,27,01,59,12.20
2017,06,27,02,00,12.10
2017,06,27,02,01,12.10
2017,06,27,02,02,12.10
2017,06,27,02,03,12.10
2017,06,27,02,04,12.10
2017,06,27,02,05,12.00
2017,06,27,02,06,12.00
2017,06,27,02,07,12.00
2017,06,27,02,08,12.00
2017,06,27,02,09,12.00
2017,06,27,02,10,12.00
2017,06,27,02,11,12.00
2017,06,27,02,12,12.00
2017,06,27,02,13,12.00
2017,06,27,02,14,12.00
2017,06,27,02,15,12.10
2017,06,27,02,16,12.10
2017,06,27,02,17,12.10
2017,06,27,02,18,12.10
2017,06,27,02,19,12.00
2017,06,27,02,20,12.00
2017,06,27,02,21,12.00
2017,06,27,02,22,12.00
2017,06,27,02,23,12.00
2017,06,27,02,24,11.90
2017,06,27,02,25,11.90
2017,06,27,02,26,11.90
2017,06,27,02,27,11.90
2017,06,27,02,28,11.90
2017,06,27,02,29,11.90
2017,06,27,02,30,11.90
2017,06,27,02,31,11.80
2017,06,27,02,32,11.80
2017,06,27,02,33,11.80
2017,06,27,02,34,11.80
2017,06,27,02,35,11.80
2017,06,27,02,36,11.80
2017,06,27,02,37,11.80
2017,06,27,02,38,11.80
2017,06,27,02,39,11.80
2017,06,27,02,40,11.80
2017,06,27,02,41,11.80
2017,06,27,02,42,11.70
2017,06,27,02,43,11.70
2017,06,27,02,44,11.70
2017,06,27,02,45,11.70
2017,06,27,02,46,11.70
2017,06,27,02,47,11.70
2017,06,27,02,48,11.70
2017,06,27,02,49,11.60
2017,06,27,02,50,11.60
2017,06,27,02,51,11.60
2017,06,27,02,52,11.60
2017,06,27,02,53,11.60
2017,06,27,02,54,11.60
2017,06,27,02,55,11.60
2017,06,27,02,56,11.60
2017,06,27,02,57,11.60
2017,06,27,02,58,11.50
2017,06,27,02,59,11.50
2017,06,27,03,00,11.50
2017,06,27,03,01,11.50
2017,06,27,03,02,11.50
2017,06,27,03,03,11.50
2017,06,27,03,04,11.50
2017,06,27,03,05,11.50
2017,06,27,03,06,11.50
2017,06,27,03,07,11.40
2017,06,27,03,08,11.40
2017,06,27,03,09,11.40
2017,06,27,03,10,11.40
2017,06,27,03,11,11.40
2017,06,27,03,12,11.40
2017,06,27,03,13,11.40
2017,06,27,03,14,11.40
2017,06,27,03,15,11.30
2017,06,27,03,16,11.30
2017,06,27,03,17,11.30
2017,06,27,03,18,11.30
2017,06,27,03,19,11.30
2017,06,27,03,20,11.30
2017,06,27,03,21,11.30
2017,06,27,03,22,11.30
2017,06,27,03,23,11.30
2017,06,27,03,24,11.30
2017,06,27,03,25,11.30
2017,06,27,03,26,11.30
2017,06,27,03,27,11.30
2017,06,27,03,28,11.30
2017,06,27,03,29,11.30
2017,06,27,03,30,11.30
2017,06,27,03,31,11.30
2017,06,27,03,32,11.30
2017,06,27,03,33,11.40
2017,06,27,03,34,11.40
2017,06,27,03,35,11.40
2017,06,27,03,36,11.40
2017,06,27,03,37,11.40
2017,06,27,03,38,11.30
2017,06,27,03,39,11.30
2017,06,27,03,40,11.30
2017,06,27,03,41,11.30
2017,06,27,03,42,11.30
2017,06,27,03,43,11.30
2017,06,27,03,44,11.20
2017,06,27,03,45,11.20
2017,06,27,03,46,11.20
2017,06,27,03,47,11.20
2017,06,27,03,48,11.20
2017,06,27,03,49,11.10
2017,06,27,03,50,11.10
2017,06,27,03,51,11.10
2017,06,27,03,52,11.10
2017,06,27,03,53,11.10
2017,06,27,03,54,11.10
2017,06,27,03,55,11.00
2017,06,27,03,56,11.00
2017,06,27,03,57,11.00
2017,06,27,03,58,10.90
2017,06,27,03,59,11.00
2017,06,27,04,00,10.90
2017,06,27,04,01,10.90
2017,06,27,04,02,10.90
2017,06,27,04,03,10.90
2017,06,27,04,04,11.00
2017,06,27,04,05,11.00
2017,06,27,04,06,11.10
2017,06,27,04,07,11.10
2017,06,27,04,08,11.10
2017,06,27,04,09,11.10
2017,06,27,04,10,11.10
2017,06,27,04,11,11.10
2017,06,27,04,12,11.10
2017,06,27,04,13,11.10
2017,06,27,04,14,11.10
2017,06,27,04,15,11.10
2017,06,27,04,16,11.10
2017,06,27,04,17,11.10
2017,06,27,04,18,11.10
2017,06,27,04,19,11.10
2017,06,27,04,20,11.20
2017,06,27,04,21,11.20
2017,06,27,04,22,11.20
2017,06,27,04,23,11.20
2017,06,27,04,24,11.20
2017,06,27,04,25,11.30
2017,06,27,04,26,11.30
2017,06,27,04,27,11.30
2017,06,27,04,28,11.30
2017,06,27,04,29,11.30
2017,06,27,04,30,11.30
2017,06,27,04,31,11.30
2017,06,27,04,32,11.30
2017,06,27,04,33,11.30
2017,06,27,04,34,11.30
2017,06,27,04,35,11.30
2017,06,27,04,36,11.30
2017,06,27,04,37,11.30
2017,06,27,04,38,11.30
2017,06,27,04,39,11.30
2017,06,27,04,40,11.30
2017,06,27,04,41,11.30
2017,06,27,04,42,11.30
2017,06,27,04,43,11.30
2017,06,27,04,44,11.30
2017,06,27,04,45,11.30
2017,06,27,04,46,11.30
2017,06,27,04,47,11.30
2017,06,27,04,48,11.30
2017,06,27,04,49,11.30
2017,06,27,04,50,11.30
2017,06,27,04,51,11.30
2017,06,27,04,52,11.30
2017,06,27,04,53,11.30
2017,06,27,04,54,11.30
2017,06,27,04,55,11.30
2017,06,27,04,56,11.30
2017,06,27,04,57,11.30
2017,06,27,04,58,11.30
2017,06,27,04,59,11.30
2017,06,27,05,00,11.30
2017,06,27,05,01,11.30
2017,06,27,05,02,11.30
2017,06,27,05,03,11.30
2017,06,27,05,04,11.30
2017,06,27,05,05,11.30
2017,06,27,05,06,11.30
2017,06,27,05,07,11.30
2017,06,27,05,08,11.30
2017,06,27,05,09,11.20
2017,06,27,05,10,11.20
2017,06,27,05,11,11.20
2017,06,27,05,12,11.20
2017,06,27,05,13,11.20
2017,06,27,05,14,11.20
2017,06,27,05,15,11.20
2017,06,27,05,16,11.20
2017,06,27,05,17,11.20
2017,06,27,05,18,11.10
2017,06,27,05,19,11.10
2017,06,27,05,20,11.10
2017,06,27,05,21,11.10
2017,06,27,05,22,11.10
2017,06,27,05,23,11.10
2017,06,27,05,24,11.10
2017,06,27,05,25,11.10
2017,06,27,05,26,11.10
2017,06,27,05,27,11.10
2017,06,27,05,28,11.10
2017,06,27,05,29,11.00
2017,06,27,05,30,11.00
2017,06,27,05,31,11.00
2017,06,27,05,32,11.00
2017,06,27,05,33,11.00
2017,06,27,05,34,11.00
2017,06,27,05,35,10.90
2017,06,27,05,36,10.90
2017,06,27,05,37,10.90
2017,06,27,05,38,10.90
2017,06,27,05,39,10.90
2017,06,27,05,40,10.90
2017,06,27,05,41,10.90
2017,06,27,05,42,10.90
2017,06,27,05,43,11.00
2017,06,27,05,44,11.00
2017,06,27,05,45,11.00
2017,06,27,05,46,11.00
2017,06,27,05,47,11.00
2017,06,27,05,48,11.00
2017,06,27,05,49,11.00
2017,06,27,05,50,11.00
2017,06,27,05,51,11.00
2017,06,27,05,52,11.00
2017,06,27,05,53,11.10
2017,06,27,05,54,11.10
2017,06,27,05,55,11.10
2017,06,27,05,56,11.10
2017,06,27,05,57,11.10
2017,06,27,05,58,11.10
2017,06,27,05,59,11.10
2017,06,27,06,00,11.10
2017,06,27,06,01,11.10
2017,06,27,06,02,11.20
2017,06,27,06,03,11.20
2017,06,27,06,04,11.20
2017,06,27,06,05,11.20
2017,06,27,06,06,11.20
2017,06,27,06,07,11.20
2017,06,27,06,08,11.20
2017,06,27,06,09,11.20
2017,06,27,06,10,11.20
2017,06,27,06,11,11.20
2017,06,27,06,12,11.20
2017,06,27,06,13,11.30
2017,06,27,06,14,11.30
2017,06,27,06,15,11.40
2017,06,27,06,16,11.40
2017,06,27,06,17,11.40
2017,06,27,06,18,11.40
2017,06,27,06,19,11.50
2017,06,27,06,20,11.50
2017,06,27,06,21,11.50
2017,06,27,06,22,11.50
2017,06,27,06,23,11.60
2017,06,27,06,24,11.60
2017,06,27,06,25,11.60
2017,06,27,06,26,11.60
2017,06,27,06,27,11.70
2017,06,27,06,28,11.70
2017,06,27,06,29,11.70
2017,06,27,06,30,11.70
2017,06,27,06,31,11.80
2017,06,27,06,32,11.80
2017,06,27,06,33,11.80
2017,06,27,06,34,11.90
2017,06,27,06,35,11.90
2017,06,27,06,36,12.00
2017,06,27,06,37,12.00
2017,06,27,06,38,12.10
2017,06,27,06,39,12.20
2017,06,27,06,40,12.30
2017,06,27,06,41,12.30
2017,06,27,06,42,12.40
2017,06,27,06,43,12.40
2017,06,27,06,44,12.50
2017,06,27,06,45,12.50
2017,06,27,06,46,12.60
2017,06,27,06,47,12.70
2017,06,27,06,48,12.70
2017,06,27,06,49,12.80
2017,06,27,06,50,12.90
2017,06,27,06,51,13.00
2017,06,27,06,52,13.00
2017,06,27,06,53,13.10
2017,06,27,06,54,13.20
2017,06,27,06,55,13.30
2017,06,27,06,56,13.40
2017,06,27,06,57,13.40
2017,06,27,06,58,13.40
2017,06,27,06,59,13.50
2017,06,27,07,00,13.60
2017,06,27,07,01,13.60
2017,06,27,07,02,13.70
2017,06,27,07,03,13.70
2017,06,27,07,04,13.70
2017,06,27,07,05,13.80
2017,06,27,07,06,13.80
2017,06,27,07,07,13.80
2017,06,27,07,08,13.90
2017,06,27,07,09,13.90
2017,06,27,07,10,13.90
2017,06,27,07,11,14.00
2017,06,27,07,12,14.00
2017,06,27,07,13,14.00
2017,06,27,07,14,14.10
2017,06,27,07,15,14.10
2017,06,27,07,16,14.10
2017,06,27,07,17,14.10
2017,06,27,07,18,14.20
2017,06,27,07,19,14.20
2017,06,27,07,20,14.30
2017,06,27,07,21,14.30
2017,06,27,07,22,14.40
2017,06,27,07,23,14.50
2017,06,27,07,24,14.60
2017,06,27,07,25,14.60
2017,06,27,07,26,14.70
2017,06,27,07,27,14.80
2017,06,27,07,28,14.90
2017,06,27,07,29,14.90
2017,06,27,07,30,15.00
2017,06,27,07,31,15.00
2017,06,27,07,32,15.00
2017,06,27,07,33,15.00
2017,06,27,07,34,15.00
2017,06,27,07,35,15.00
2017,06,27,07,36,15.00
2017,06,27,07,37,15.10
2017,06,27,07,38,15.20
2017,06,27,07,39,15.30
2017,06,27,07,40,15.30
2017,06,27,07,41,15.40
2017,06,27,07,42,15.40
2017,06,27,07,43,15.40
2017,06,27,07,44,15.40
2017,06,27,07,45,15.40
2017,06,27,07,46,15.40
2017,06,27,07,47,15.50
2017,06,27,07,48,15.50
2017,06,27,07,49,15.50
2017,06,27,07,50,15.60
2017,06,27,07,51,15.60
2017,06,27,07,52,15.60
2017,06,27,07,53,15.60
2017,06,27,07,54,15.70
2017,06,27,07,55,15.70
2017,06,27,07,56,15.70
2017,06,27,07,57,15.70
2017,06,27,07,58,15.80
2017,06,27,07,59,15.80
2017,06,27,08,00,15.80
2017,06,27,08,01,15.80
2017,06,27,08,02,15.90
2017,06,27,08,03,15.90
2017,06,27,08,04,16.00
2017,06,27,08,05,16.00
2017,06,27,08,06,16.10
2017,06,27,08,07,16.20
2017,06,27,08,08,16.20
2017,06,27,08,09,16.30
2017,06,27,08,10,16.30
2017,06,27,08,11,16.30
2017,06,27,08,12,16.30
2017,06,27,08,13,16.20
2017,06,27,08,14,16.10
2017,06,27,08,15,16.00
2017,06,27,08,16,16.00
2017,06,27,08,17,15.90
2017,06,27,08,18,15.90
2017,06,27,08,19,15.90
2017,06,27,08,20,15.90
2017,06,27,08,21,15.90
2017,06,27,08,22,15.90
2017,06,27,08,23,15.90
2017,06,27,08,24,16.00
2017,06,27,08,25,16.00
2017,06,27,08,26,16.10
2017,06,27,08,27,16.10
2017,06,27,08,28,16.20
2017,06,27,08,29,16.20
2017,06,27,08,30,16.20
2017,06,27,08,31,16.10
2017,06,27,08,32,16.10
2017,06,27,08,33,16.10
2017,06,27,08,34,16.10
2017,06,27,08,35,16.10
2017,06,27,08,36,16.10
2017,06,27,08,37,16.10
2017,06,27,08,38,16.10
2017,06,27,08,39,16.10
2017,06,27,08,40,16.10
2017,06,27,08,41,16.10
2017,06,27,08,42,16.10
2017,06,27,08,43,16.10
2017,06,27,08,44,16.20
2017,06,27,08,45,16.30
2017,06,27,08,46,16.30
2017,06,27,08,47,16.30
2017,06,27,08,48,16.30
2017,06,27,08,49,16.20
2017,06,27,08,50,16.30
2017,06,27,08,51,16.30
2017,06,27,08,52,16.40
2017,06,27,08,53,16.40
2017,06,27,08,54,16.40
2017,06,27,08,55,16.40
2017,06,27,08,56,16.40
2017,06,27,08,57,16.50
2017,06,27,08,58,16.50
2017,06,27,08,59,16.60
2017,06,27,09,00,16.60
2017,06,27,09,01,16.70
2017,06,27,09,02,16.60
2017,06,27,09,03,16.50
2017,06,27,09,04,16.30
2017,06,27,09,05,16.30
2017,06,27,09,06,16.30
2017,06,27,09,07,16.40
2017,06,27,09,08,16.50
2017,06,27,09,09,16.60
2017,06,27,09,10,16.60
2017,06,27,09,11,16.70
2017,06,27,09,12,16.70
2017,06,27,09,13,16.70
2017,06,27,09,14,16.70
2017,06,27,09,15,16.70
2017,06,27,09,16,16.80
2017,06,27,09,17,16.90
2017,06,27,09,18,16.90
2017,06,27,09,19,16.90
2017,06,27,09,20,17.00
2017,06,27,09,21,17.00
2017,06,27,09,22,17.00
2017,06,27,09,23,17.00
2017,06,27,09,24,17.00
2017,06,27,09,25,16.90
2017,06,27,09,26,17.00
2017,06,27,09,27,17.00
2017,06,27,09,28,17.10
2017,06,27,09,29,17.00
2017,06,27,09,30,17.00
2017,06,27,09,31,16.90
2017,06,27,09,32,16.90
2017,06,27,09,33,17.00
2017,06,27,09,34,17.00
2017,06,27,09,35,16.90
2017,06,27,09,36,16.90
2017,06,27,09,37,16.90
2017,06,27,09,38,16.90
2017,06,27,09,39,17.00
2017,06,27,09,40,17.00
2017,06,27,09,41,17.00
2017,06,27,09,42,16.90
2017,06,27,09,43,16.90
2017,06,27,09,44,17.00
2017,06,27,09,45,17.00
2017,06,27,09,46,17.00
2017,06,27,09,47,17.10
2017,06,27,09,48,17.20
2017,06,27,09,49,17.20
2017,06,27,09,50,17.10
2017,06,27,09,51,17.00
2017,06,27,09,52,16.90
2017,06,27,09,53,16.80
2017,06,27,09,54,16.80
2017,06,27,09,55,16.60
2017,06,27,09,56,16.50
2017,06,27,09,57,16.40
2017,06,27,09,58,16.30
2017,06,27,09,59,16.10
2017,06,27,10,00,16.10
2017,06,27,10,01,16.10
2017,06,27,10,02,16.10
2017,06,27,10,03,16.20
2017,06,27,10,04,16.20
2017,06,27,10,05,16.20
2017,06,27,10,06,16.20
2017,06,27,10,07,16.20
2017,06,27,10,08,16.20
2017,06,27,10,09,16.20
2017,06,27,10,10,16.30
2017,06,27,10,11,16.40
2017,06,27,10,12,16.40
2017,06,27,10,13,16.50
2017,06,27,10,14,16.60
2017,06,27,10,15,16.60
2017,06,27,10,16,16.70
2017,06,27,10,17,16.80
2017,06,27,10,18,16.90
2017,06,27,10,19,16.80
2017,06,27,10,20,16.70
2017,06,27,10,21,16.70
2017,06,27,10,22,16.70
2017,06,27,10,23,16.70
2017,06,27,10,24,16.60
2017,06,27,10,25,16.60
2017,06,27,10,26,16.50
2017,06,27,10,27,16.50
2017,06,27,10,28,16.50
2017,06,27,10,29,16.40
2017,06,27,10,30,16.40
2017,06,27,10,31,16.50
2017,06,27,10,32,16.50
2017,06,27,10,33,16.60
2017,06,27,10,34,16.70
2017,06,27,10,35,16.60
2017,06,27,10,36,16.70
2017,06,27,10,37,16.70
2017,06,27,10,38,16.70
2017,06,27,10,39,16.70
2017,06,27,10,40,16.60
2017,06,27,10,41,16.50
2017,06,27,10,42,16.50
2017,06,27,10,43,16.50
2017,06,27,10,44,16.50
2017,06,27,10,45,16.50
2017,06,27,10,46,16.50
2017,06,27,10,47,16.50
2017,06,27,10,48,16.60
2017,06,27,10,49,16.60
2017,06,27,10,50,16.60
2017,06,27,10,51,16.50
2017,06,27,10,52,16.30
2017,06,27,10,53,16.30
2017,06,27,10,54,16.30
2017,06,27,10,55,16.20
2017,06,27,10,56,16.20
2017,06,27,10,57,16.20
2017,06,27,10,58,16.30
2017,06,27,10,59,16.30
2017,06,27,11,00,16.20
2017,06,27,11,01,16.20
2017,06,27,11,02,16.10
2017,06,27,11,03,15.90
2017,06,27,11,04,15.70
2017,06,27,11,05,15.60
2017,06,27,11,06,15.60
2017,06,27,11,07,15.70
2017,06,27,11,08,15.80
2017,06,27,11,09,16.00
2017,06,27,11,10,16.10
2017,06,27,11,11,16.10
2017,06,27,11,12,16.20
2017,06,27,11,13,16.20
2017,06,27,11,14,16.20
2017,06,27,11,15,16.20
2017,06,27,11,16,16.30
2017,06,27,11,17,16.20
2017,06,27,11,18,16.30
2017,06,27,11,19,16.30
2017,06,27,11,20,16.40
2017,06,27,11,21,16.50
2017,06,27,11,22,16.50
2017,06,27,11,23,16.50
2017,06,27,11,24,16.40
2017,06,27,11,25,16.30
2017,06,27,11,26,16.20
2017,06,27,11,27,16.10
2017,06,27,11,28,16.00
2017,06,27,11,29,15.90
2017,06,27,11,30,16.00
2017,06,27,11,31,16.10
2017,06,27,11,32,16.10
2017,06,27,11,33,16.20
2017,06,27,11,34,16.30
2017,06,27,11,35,16.40
2017,06,27,11,36,16.50
2017,06,27,11,37,16.70
2017,06,27,11,38,16.80
2017,06,27,11,39,16.80
2017,06,27,11,40,16.70
2017,06,27,11,41,16.60
2017,06,27,11,42,16.50
2017,06,27,11,43,16.30
2017,06,27,11,44,16.20
2017,06,27,11,45,16.20
2017,06,27,11,46,16.20
2017,06,27,11,47,16.20
2017,06,27,11,48,16.30
2017,06,27,11,49,16.30
2017,06,27,11,50,16.30
2017,06,27,11,51,16.40
2017,06,27,11,52,16.40
2017,06,27,11,53,16.40
2017,06,27,11,54,16.50
2017,06,27,11,55,16.60
2017,06,27,11,56,16.70
2017,06,27,11,57,16.90
2017,06,27,11,58,16.90
2017,06,27,11,59,16.90
2017,06,27,12,00,17.00
2017,06,27,12,01,17.10
2017,06,27,12,02,17.20
2017,06,27,12,03,17.20
2017,06,27,12,04,17.10
2017,06,27,12,05,17.10
2017,06,27,12,06,17.20
2017,06,27,12,07,17.10
2017,06,27,12,08,17.00
2017,06,27,12,09,17.00
2017,06,27,12,10,16.90
2017,06,27,12,11,16.90
2017,06,27,12,12,16.80
2017,06,27,12,13,16.90
2017,06,27,12,14,17.00
2017,06,27,12,15,17.00
2017,06,27,12,16,17.10
2017,06,27,12,17,17.30
2017,06,27,12,18,17.40
2017,06,27,12,19,17.60
2017,06,27,12,20,17.70
2017,06,27,12,21,17.80
2017,06,27,12,22,17.80
2017,06,27,12,23,17.60
2017,06,27,12,24,17.50
2017,06,27,12,25,17.30
2017,06,27,12,26,17.20
2017,06,27,12,27,17.10
2017,06,27,12,28,17.00
2017,06,27,12,29,16.90
2017,06,27,12,30,16.80
2017,06,27,12,31,16.80
2017,06,27,12,32,17.00
2017,06,27,12,33,17.10
2017,06,27,12,34,17.30
2017,06,27,12,35,17.30
2017,06,27,12,36,17.30
2017,06,27,12,37,17.40
2017,06,27,12,38,17.40
2017,06,27,12,39,17.40
2017,06,27,12,40,17.50
2017,06,27,12,41,17.60
2017,06,27,12,42,17.50
2017,06,27,12,43,17.40
2017,06,27,12,44,17.30
2017,06,27,12,45,17.20
2017,06,27,12,46,17.40
2017,06,27,12,47,17.50
2017,06,27,12,48,17.60
2017,06,27,12,49,17.70
2017,06,27,12,50,17.90
2017,06,27,12,51,17.80
2017,06,27,12,52,17.60
2017,06,27,12,53,17.50
2017,06,27,12,54,17.40
2017,06,27,12,55,17.40
2017,06,27,12,56,17.30
2017,06,27,12,57,17.40
2017,06,27,12,58,17.50
2017,06,27,12,59,17.60
2017,06,27,13,00,17.70
2017,06,27,13,01,17.90
2017,06,27,13,02,18.00
2017,06,27,13,03,17.90
2017,06,27,13,04,17.80
2017,06,27,13,05,17.80
2017,06,27,13,06,17.90
2017,06,27,13,07,17.90
2017,06,27,13,08,17.90
2017,06,27,13,09,17.90
2017,06,27,13,10,17.80
2017,06,27,13,11,17.80
2017,06,27,13,12,17.70
2017,06,27,13,13,17.60
2017,06,27,13,14,17.60
2017,06,27,13,15,17.40
2017,06,27,13,16,17.40
2017,06,27,13,17,17.30
2017,06,27,13,18,17.30
2017,06,27,13,19,17.20
2017,06,27,13,20,17.10
2017,06,27,13,21,17.20
2017,06,27,13,22,17.20
2017,06,27,13,23,17.10
2017,06,27,13,24,17.10
2017,06,27,13,25,17.10
2017,06,27,13,26,17.00
2017,06,27,13,27,17.00
2017,06,27,13,28,17.10
2017,06,27,13,29,17.00
2017,06,27,13,30,17.00
2017,06,27,13,31,16.90
2017,06,27,13,32,17.00
2017,06,27,13,33,17.10
2017,06,27,13,34,17.30
2017,06,27,13,35,17.30
2017,06,27,13,36,17.30
2017,06,27,13,37,17.20
2017,06,27,13,38,17.10
2017,06,27,13,39,16.90
2017,06,27,13,40,16.90
2017,06,27,13,41,16.80
2017,06,27,13,42,16.60
2017,06,27,13,43,16.50
2017,06,27,13,44,16.40
2017,06,27,13,45,16.50
2017,06,27,13,46,16.60
2017,06,27,13,47,16.60
2017,06,27,13,48,16.50
2017,06,27,13,49,16.40
2017,06,27,13,50,16.30
2017,06,27,13,51,16.30
2017,06,27,13,52,16.40
2017,06,27,13,53,16.40
2017,06,27,13,54,16.40
2017,06,27,13,55,16.50
2017,06,27,13,56,16.60
2017,06,27,13,57,16.60
2017,06,27,13,58,16.60
2017,06,27,13,59,16.60
2017,06,27,14,00,16.60
2017,06,27,14,01,16.60
2017,06,27,14,02,16.60
2017,06,27,14,03,16.70
2017,06,27,14,04,16.80
2017,06,27,14,05,16.80
2017,06,27,14,06,16.80
2017,06,27,14,07,16.80
2017,06,27,14,08,16.80
2017,06,27,14,09,16.80
2017,06,27,14,10,17.00
2017,06,27,14,11,17.10
2017,06,27,14,12,17.20
2017,06,27,14,13,17.30
2017,06,27,14,14,17.30
2017,06,27,14,15,17.30
2017,06,27,14,16,17.30
2017,06,27,14,17,17.30
2017,06,27,14,18,17.30
2017,06,27,14,19,17.30
2017,06,27,14,20,17.30
2017,06,27,14,21,17.30
2017,06,27,14,22,17.40
2017,06,27,14,23,17.50
2017,06,27,14,24,17.70
2017,06,27,14,25,17.80
2017,06,27,14,26,17.90
2017,06,27,14,27,18.00
2017,06,27,14,28,18.00
2017,06,27,14,29,18.00
2017,06,27,14,30,18.00
2017,06,27,14,31,18.10
2017,06,27,14,32,18.20
2017,06,27,14,33,18.10
2017,06,27,14,34,18.00
2017,06,27,14,35,17.90
2017,06,27,14,36,17.90
2017,06,27,14,37,17.90
2017,06,27,14,38,17.90
2017,06,27,14,39,17.90
2017,06,27,14,40,18.00
2017,06,27,14,41,18.10
2017,06,27,14,42,18.10
2017,06,27,14,43,18.10
2017,06,27,14,44,18.10
2017,06,27,14,45,18.10
2017,06,27,14,46,18.10
2017,06,27,14,47,18.10
2017,06,27,14,48,18.20
2017,06,27,14,49,18.20
2017,06,27,14,50,18.30
2017,06,27,14,51,18.30
2017,06,27,14,52,18.30
2017,06,27,14,53,18.40
2017,06,27,14,54,18.40
2017,06,27,14,55,18.50
2017,06,27,14,56,18.50
2017,06,27,14,57,18.50
2017,06,27,14,58,18.50
2017,06,27,14,59,18.40
2017,06,27,15,00,18.50
2017,06,27,15,01,18.60
2017,06,27,15,02,18.60
2017,06,27,15,03,18.70
2017,06,27,15,04,18.70
2017,06,27,15,05,18.80
2017,06,27,15,06,18.90
2017,06,27,15,07,18.90
2017,06,27,15,08,19.00
2017,06,27,15,09,19.10
2017,06,27,15,10,19.20
2017,06,27,15,11,19.30
2017,06,27,15,12,19.30
2017,06,27,15,13,19.40
2017,06,27,15,14,19.40
2017,06,27,15,15,19.50
2017,06,27,15,16,19.50
2017,06,27,15,17,19.70
2017,06,27,15,18,19.80
2017,06,27,15,19,19.70
2017,06,27,15,20,19.70
2017,06,27,15,21,19.80
2017,06,27,15,22,19.90
2017,06,27,15,23,20.00
2017,06,27,15,24,19.90
2017,06,27,15,25,19.90
2017,06,27,15,26,20.00
2017,06,27,15,27,20.00
2017,06,27,15,28,20.10
2017,06,27,15,29,20.00
2017,06,27,15,30,19.90
2017,06,27,15,31,19.80
2017,06,27,15,32,19.70
2017,06,27,15,33,19.70
2017,06,27,15,34,19.70
2017,06,27,15,35,19.80
2017,06,27,15,36,20.00
2017,06,27,15,37,20.00
2017,06,27,15,38,20.10
2017,06,27,15,39,20.00
2017,06,27,15,40,20.00
2017,06,27,15,41,20.00
2017,06,27,15,42,19.90
2017,06,27,15,43,19.80
2017,06,27,15,44,19.70
2017,06,27,15,45,19.70
2017,06,27,15,46,19.70
2017,06,27,15,47,19.70
2017,06,27,15,48,19.70
2017,06,27,15,49,19.80
2017,06,27,15,50,19.80
2017,06,27,15,51,19.80
2017,06,27,15,52,19.70
2017,06,27,15,53,19.60
2017,06,27,15,54,19.60
2017,06,27,15,55,19.70
2017,06,27,15,56,19.70
2017,06,27,15,57,19.70
2017,06,27,15,58,19.70
2017,06,27,15,59,19.60
2017,06,27,16,00,19.60
2017,06,27,16,01,19.60
2017,06,27,16,02,19.70
2017,06,27,16,03,19.80
2017,06,27,16,04,19.90
2017,06,27,16,05,20.00
2017,06,27,16,06,20.00
2017,06,27,16,07,19.90
2017,06,27,16,08,19.90
2017,06,27,16,09,19.90
2017,06,27,16,10,19.90
2017,06,27,16,11,19.80
2017,06,27,16,12,19.90
2017,06,27,16,13,19.90
2017,06,27,16,14,19.90
2017,06,27,16,15,20.00
2017,06,27,16,16,20.00
2017,06,27,16,17,20.10
2017,06,27,16,18,20.20
2017,06,27,16,19,20.20
2017,06,27,16,20,20.30
2017,06,27,16,21,20.30
2017,06,27,16,22,20.30
2017,06,27,16,23,20.40
2017,06,27,16,24,20.20
2017,06,27,16,25,20.00
2017,06,27,16,26,20.00
2017,06,27,16,27,19.90
2017,06,27,16,28,19.80
2017,06,27,16,29,19.80
2017,06,27,16,30,19.80
2017,06,27,16,31,19.90
2017,06,27,16,32,20.00
2017,06,27,16,33,20.20
2017,06,27,16,34,20.30
2017,06,27,16,35,20.50
2017,06,27,16,36,20.50
2017,06,27,16,37,20.50
2017,06,27,16,38,20.60
2017,06,27,16,39,20.70
2017,06,27,16,40,20.70
2017,06,27,16,41,20.70
2017,06,27,16,42,20.80
2017,06,27,16,43,20.70
2017,06,27,16,44,20.60
2017,06,27,16,45,20.50
2017,06,27,16,46,20.40
2017,06,27,16,47,20.50
2017,06,27,16,48,20.50
2017,06,27,16,49,20.50
2017,06,27,16,50,20.50
2017,06,27,16,51,20.50
2017,06,27,16,52,20.50
2017,06,27,16,53,20.50
2017,06,27,16,54,20.50
2017,06,27,16,55,20.50
2017,06,27,16,56,20.60
2017,06,27,16,57,20.60
2017,06,27,16,58,20.70
2017,06,27,16,59,20.70
2017,06,27,17,00,20.80
2017,06,27,17,01,20.80
2017,06,27,17,02,20.90
2017,06,27,17,03,20.90
2017,06,27,17,04,20.90
2017,06,27,17,05,20.90
2017,06,27,17,06,21.00
2017,06,27,17,07,21.10
2017,06,27,17,08,21.00
2017,06,27,17,09,21.00
2017,06,27,17,10,21.00
2017,06,27,17,11,21.00
2017,06,27,17,12,21.00
2017,06,27,17,13,21.10
2017,06,27,17,14,21.10
2017,06,27,17,15,21.10
2017,06,27,17,16,21.10
2017,06,27,17,17,21.10
2017,06,27,17,18,21.10
2017,06,27,17,19,21.10